BC, British Columbia

11:13 PM EST on February 22, 2017 (GMT -0500)
Hall Beach

Weather History for CYUX - October, 2012

Change the Weather History Date:

Thursday, October 4, 2012

  Actual Average Record
Temperature  
Mean Temperature 26 °F -  
Max Temperature 28 °F 18 °F 33 °F (2010)
Min Temperature 23 °F 5 °F 8 °F (1997)
Degree Days  
Heating Degree Days 40    
Moisture  
Dew Point 23 °F    
Average Humidity 86    
Maximum Humidity 100    
Minimum Humidity 80    
Precipitation  
Precipitation 0.00 in 0.03 in - ()
Sea Level Pressure  
Sea Level Pressure 30.04 in    
Wind  
Wind Speed 26 mph ()    
Max Wind Speed 34 mph    
Max Gust Speed 41 mph    
Visibility 7.9 miles    
Events Rain , Snow    
Averages and records for this station are not official NWS values.
T = Trace of Precipitation, MM = Missing Value Source: Averaged Metar Reports

Daily Weather History Graph

Daily Weather History Graph

Search for Another Location

Airport or City:

Trip Planner

Search our weather history database for the weather conditions in past years. The results will help you decide how hot, cold, wet, or windy it might be!

Date:

Astronomy

Oct. 04, 2012 Rise Set
Actual Time 7:52 AM EDT 6:33 PM EDT
Civil Twilight 6:54 AM EDT 7:30 PM EDT
Nautical Twilight 5:46 AM EDT 8:37 PM EDT
Astronomical Twilight 4:31 AM EDT 9:52 PM EDT
Moon 5:55 PM EDT (10/4) 3:18 PM EDT (10/4)
Length of Visible Light 12h 35m
Length of Day
10h 40m
Waning Gibbous, 82% of the Moon is Illuminated
Oct 4
Waning Gibbous
Oct 8
Last Quarter
Oct 15
New
Oct 21
First Quarter
Oct 29
Full

Hourly Weather History & Observations

Time (EDT) Temp. Windchill Dew Point Humidity Pressure Visibility Wind Dir Wind Speed Gust Speed Precip Events Conditions
12:00 AM 26.6 °F 9.3 °F 23.0 °F 86% 29.91 in 8.0 mi NNW 34.5 mph 41.4 mph N/A   Overcast
12:13 AM 26.6 °F 9.3 °F 23.0 °F 86% 29.92 in 9.0 mi NNW 34.5 mph - N/A   Overcast
12:28 AM 26.6 °F 10.0 °F 23.0 °F 86% 29.93 in 8.0 mi NNW 31.1 mph 39.1 mph N/A Snow Light Snow
12:31 AM 26.6 °F 9.8 °F 23.0 °F 86% 29.93 in 4.0 mi NNW 32.2 mph 39.1 mph N/A Snow Light Snow
12:32 AM 26.6 °F 10.0 °F 23.0 °F 86% 29.93 in 3.0 mi NNW 31.1 mph 38.0 mph N/A Snow Light Snow
12:37 AM 26.6 °F 9.3 °F 23.0 °F 86% 29.93 in 2.2 mi NNW 34.5 mph - N/A Snow Light Snow
12:39 AM 26.6 °F 9.6 °F 23.0 °F 86% 29.94 in 2.0 mi NNW 33.4 mph 39.1 mph N/A Snow Light Snow
1:00 AM 24.8 °F 7.9 °F 23.0 °F 93% 29.94 in 1.8 mi NNW 29.9 mph - N/A Snow Light Snow
1:09 AM 26.6 °F 10.8 °F 23.0 °F 86% 29.95 in 2.2 mi NNW 27.6 mph 34.5 mph N/A Snow Light Snow
1:12 AM 26.6 °F 10.8 °F 23.0 °F 86% 29.95 in 3.0 mi NNW 27.6 mph 34.5 mph N/A Snow Light Snow
1:15 AM 26.6 °F 10.6 °F 23.0 °F 86% 29.95 in 7.0 mi NNW 28.8 mph - N/A Snow Light Snow
1:59 AM 24.8 °F 7.3 °F 21.2 °F 86% 29.97 in 9.0 mi NNW 32.2 mph - N/A   Overcast
2:00 AM 24.8 °F 7.1 °F 21.2 °F 86% 29.97 in 9.0 mi NNW 33.4 mph - N/A   Overcast
2:35 AM 24.8 °F 8.7 °F 21.2 °F 86% 29.99 in 9.0 mi NW 26.5 mph 35.7 mph N/A   Overcast
3:00 AM 23.0 °F 5.4 °F 19.4 °F 86% 29.99 in 9.0 mi NNW 29.9 mph 40.3 mph N/A   Scattered Clouds
4:00 AM 23.0 °F 8.3 °F 19.4 °F 86% 30.02 in 9.0 mi NW 19.6 mph 26.5 mph N/A   Partly Cloudy
5:00 AM 23.0 °F 6.3 °F 17.6 °F 80% 30.01 in 9.0 mi NW 26.5 mph 34.5 mph N/A   Overcast
5:51 AM 24.8 °F 8.7 °F 19.4 °F 80% 30.02 in 9.0 mi NW 26.5 mph 33.4 mph N/A Snow Light Snow
6:00 AM 24.8 °F 9.0 °F 19.4 °F 80% 30.02 in 9.0 mi NW 25.3 mph 31.1 mph N/A Snow Light Snow
7:00 AM 24.8 °F 9.3 °F 21.2 °F 86% 30.03 in 9.0 mi NW 24.2 mph 29.9 mph N/A Snow Light Snow
7:16 AM 24.8 °F 8.7 °F 21.2 °F 86% 30.03 in 9.0 mi NW 26.5 mph 33.4 mph N/A   Overcast
7:41 AM 24.8 °F 8.7 °F 21.2 °F 86% 30.04 in 9.0 mi NW 26.5 mph 35.7 mph N/A Snow Light Snow
7:56 AM 24.8 °F 8.4 °F 21.2 °F 86% 30.03 in 9.0 mi NW 27.6 mph 36.8 mph N/A   Overcast
8:00 AM 24.8 °F 8.4 °F 21.2 °F 86% 30.04 in 12.0 mi NW 27.6 mph 36.8 mph N/A Snow Low Drifting Snow
9:00 AM 24.8 °F 7.1 °F 19.4 °F 80% 30.04 in 12.0 mi NNW 33.4 mph 40.3 mph N/A Snow Low Drifting Snow
10:00 AM 24.8 °F 7.9 °F 19.4 °F 80% 30.06 in 5.0 mi NNW 29.9 mph 39.1 mph N/A Snow Blowing Snow
11:00 AM 24.8 °F 8.4 °F 19.4 °F 80% 30.06 in 15.0 mi NW 27.6 mph - N/A Snow Low Drifting Snow
12:00 PM 24.8 °F 7.6 °F 19.4 °F 80% 30.06 in 15.0 mi NW 31.1 mph - N/A Snow Low Drifting Snow
1:00 PM 26.6 °F 10.0 °F 21.2 °F 80% 30.06 in 15.0 mi NW 31.1 mph 38.0 mph N/A Snow Low Drifting Snow
1:37 PM 26.6 °F 11.4 °F 21.2 °F 80% 30.08 in 15.0 mi NNW 25.3 mph 32.2 mph N/A Snow Light Snow
2:00 PM 26.6 °F 10.6 °F 21.2 °F 80% 30.08 in 12.0 mi NNW 28.8 mph 35.7 mph N/A Snow Light Snow
3:00 PM 28.4 °F 14.1 °F 24.8 °F 86% 30.09 in 12.0 mi NNW 24.2 mph - N/A Snow Light Snow
3:11 PM 28.4 °F 15.1 °F 24.8 °F 86% 30.09 in 10.0 mi NNW 20.7 mph 29.9 mph N/A Rain , Snow Light Freezing Rain
3:30 PM 28.4 °F 13.5 °F 23.0 °F 80% 30.08 in 12.0 mi NW 26.5 mph - N/A Snow Low Drifting Snow
4:00 PM 28.4 °F 13.8 °F 23.0 °F 80% 30.09 in 12.0 mi NW 25.3 mph 33.4 mph N/A Snow Low Drifting Snow
5:00 PM 28.4 °F 14.1 °F 24.8 °F 86% 30.09 in 15.0 mi NW 24.2 mph - N/A Snow Low Drifting Snow
5:25 PM 28.4 °F 14.4 °F 24.8 °F 86% 30.08 in 10.0 mi WNW 23.0 mph - N/A Snow Light Snow
6:00 PM 28.4 °F 13.8 °F 26.6 °F 93% 30.08 in 12.0 mi NW 25.3 mph 31.1 mph N/A Snow Light Snow
6:33 PM 28.4 °F 13.3 °F 26.6 °F 93% 30.08 in 1.0 mi WNW 27.6 mph - N/A Snow Light Snow
6:37 PM 28.4 °F 13.3 °F 26.6 °F 93% 30.08 in 0.5 mi WNW 27.6 mph - N/A Snow Light Snow
6:51 PM 28.4 °F 13.8 °F 28.4 °F 100% 30.08 in 1.0 mi WNW 25.3 mph 31.1 mph N/A Snow Heavy Snow
7:00 PM 28.4 °F 13.5 °F 26.6 °F 93% 30.07 in 2.0 mi WNW 26.5 mph 34.5 mph N/A Snow Light Snow
7:47 PM 28.4 °F 13.8 °F 24.8 °F 86% 30.08 in 12.0 mi NW 25.3 mph 32.2 mph N/A Snow Low Drifting Snow
8:00 PM 28.4 °F 13.5 °F 24.8 °F 86% 30.08 in 15.0 mi NW 26.5 mph 32.2 mph N/A Snow Low Drifting Snow
8:41 PM 28.4 °F 12.5 °F 24.8 °F 86% 30.09 in 5.0 mi NNW 31.1 mph 38.0 mph N/A   Mostly Cloudy
8:42 PM 28.4 °F 12.5 °F 24.8 °F 86% 30.09 in 5.0 mi NNW 31.1 mph 38.0 mph N/A Snow Light Snow
9:00 PM 26.6 °F 10.6 °F 23.0 °F 86% 30.09 in 5.0 mi NNW 28.8 mph 36.8 mph N/A Snow Light Snow
9:02 PM 26.6 °F 11.1 °F 23.0 °F 86% 30.09 in 6.0 mi NNW 26.5 mph 35.7 mph N/A Snow Light Snow
9:10 PM 26.6 °F 11.4 °F 23.0 °F 86% 30.09 in 9.0 mi NNW 25.3 mph 35.7 mph N/A   Partly Cloudy
9:50 PM 26.6 °F 12.0 °F 23.0 °F 86% 30.09 in 9.0 mi NNW 23.0 mph - N/A   Mostly Cloudy
9:55 PM 26.6 °F 12.7 °F 23.0 °F 86% 30.09 in 9.0 mi NNW 20.7 mph 27.6 mph N/A   Mostly Cloudy
10:00 PM 26.6 °F 12.4 °F 23.0 °F 86% 30.09 in 9.0 mi NNW 21.9 mph 27.6 mph N/A   Mostly Cloudy
10:06 PM 26.6 °F 12.4 °F 23.0 °F 86% 30.09 in 9.0 mi NNW 21.9 mph 27.6 mph N/A   Mostly Cloudy
10:08 PM 26.6 °F 12.7 °F 23.0 °F 86% 30.09 in 9.0 mi NNW 20.7 mph 27.6 mph N/A   Mostly Cloudy
10:50 PM 28.4 °F 15.8 °F 23.0 °F 80% 30.10 in 9.0 mi NW 18.4 mph - N/A Snow Light Snow
10:58 PM 26.6 °F 12.4 °F 24.8 °F 93% 30.09 in 5.0 mi NW 21.9 mph - N/A Snow Light Snow
11:00 PM 26.6 °F 12.7 °F 24.8 °F 93% 30.10 in 4.0 mi NW 20.7 mph - N/A Snow Light Snow
11:02 PM 26.6 °F 12.0 °F 24.8 °F 93% 30.10 in 3.0 mi NW 23.0 mph - N/A Snow Light Snow
11:04 PM 26.6 °F 12.0 °F 24.8 °F 93% 30.10 in 2.5 mi NW 23.0 mph - N/A Snow Light Snow
11:14 PM 26.6 °F 12.7 °F 24.8 °F 93% 30.10 in 3.0 mi NNW 20.7 mph 27.6 mph N/A Snow Light Snow
11:23 PM 26.6 °F 13.8 °F 24.8 °F 93% 30.10 in 6.0 mi NNW 17.3 mph 23.0 mph N/A Snow Light Snow
11:28 PM 26.6 °F 14.7 °F 26.6 °F 100% 30.10 in 9.0 mi NNW 15.0 mph 21.9 mph N/A Snow Light Snow
11:46 PM 28.4 °F 15.1 °F 24.8 °F 86% 30.09 in 9.0 mi NW 20.7 mph - N/A   Mostly Cloudy